M I D A S
Marine Information and Data Acquisition System
Tripno 2116 of the Zeeleeuw from 2011-06-07 07:27:07 to 2011-06-08 12:58:23
Back to CruiseResearch ActivitiesStationsMapUnderway DataData graphs

EquipmentUnitsComments
TimeDGPSUTC
LatitudeDGPSDM.mWGS84
LongitudeDGPSDM.mWGS84
SpeedMeteo Stationm/sRelative wind speed
DirectionMeteo StationdegRelative wind direction
TemperatureMeteo Stationdeg CelciusAir temperature
PressureMeteo StationPaAtmospheric pressure
HumidityMeteo Station%Relative humidity
Missing or incorrect values are displayed as -999
Metereological data collected by the RV Zeeleeuw from 2011-06-07 06:59:36 to 2011-06-08 13:07:11
                                                                                    Next 1000 lines
Time Latitude Longitude Speed Direction Temperature Pressure Humidity
2011-06-07 06:59:46 51°13.636 2°56.019 -999 343 13.1 100550 43
2011-06-07 06:59:51 51°13.636 2°56.019 -999 348 13.1 100550 43
2011-06-07 06:59:56 51°13.636 2°56.019 -999 358 13.1 100550 43
2011-06-07 07:00:01 51°13.636 2°56.019 -999 3 13.1 100550 43
2011-06-07 07:00:06 51°13.636 2°56.019 -999 7 13.1 100550 43
2011-06-07 07:00:11 51°13.636 2°56.019 -999 6 13.1 100550 43
2011-06-07 07:00:16 51°13.636 2°56.019 -999 359 13.1 100550 43
2011-06-07 07:00:21 51°13.636 2°56.019 -999 359 13.1 100550 43
2011-06-07 07:00:26 51°13.636 2°56.019 -999 -999 13.1 100550 41
2011-06-07 07:00:31 51°13.636 2°56.019 -999 359 13.1 100550 41
2011-06-07 07:00:36 51°13.636 2°56.019 -999 359 13.1 100550 43
2011-06-07 07:00:40 51°13.636 2°56.019 -999 358 13.1 100550 43
2011-06-07 07:00:45 51°13.636 2°56.019 -999 359 13.1 100550 43
2011-06-07 07:00:51 51°13.636 2°56.019 -999 -999 13.1 100550 43
2011-06-07 07:00:56 51°13.636 2°56.019 -999 -999 13.1 100550 42
2011-06-07 07:01:01 51°13.636 2°56.019 -999 2 13.1 100550 42
2011-06-07 07:01:06 51°13.636 2°56.019 -999 2 13.1 100550 42
2011-06-07 07:01:11 51°13.636 2°56.019 -999 359 13.1 100550 42
2011-06-07 07:01:16 51°13.636 2°56.019 -999 359 13.1 100550 42
2011-06-07 07:01:20 51°13.636 2°56.019 -999 1 13.1 100550 42
2011-06-07 07:01:25 51°13.636 2°56.019 -999 358 13 100550 42
2011-06-07 07:01:30 51°13.636 2°56.019 -999 350 13 100550 42
2011-06-07 07:01:35 51°13.636 2°56.019 -999 352 13 100550 42
2011-06-07 07:01:40 51°13.636 2°56.019 -999 348 13 100550 42
2011-06-07 07:01:44 51°13.636 2°56.019 -999 348 13 100550 42
2011-06-07 07:01:49 51°13.636 2°56.019 -999 345 13 100550 42
2011-06-07 07:01:54 51°13.636 2°56.019 -999 345 13 100550 42
2011-06-07 07:01:59 51°13.636 2°56.019 -999 339 13 100550 42
2011-06-07 07:02:04 51°13.636 2°56.019 -999 343 13.1 100550 43
2011-06-07 07:02:08 51°13.635 2°56.019 -999 347 13.1 100550 43
2011-06-07 07:02:13 51°13.635 2°56.019 -999 341 13.1 100550 43
2011-06-07 07:02:19 51°13.635 2°56.019 -999 351 13.1 100550 43
2011-06-07 07:02:24 51°13.635 2°56.019 -999 341 13.1 100550 43
2011-06-07 07:02:28 51°13.635 2°56.019 -999 344 13.1 100550 43
2011-06-07 07:02:33 51°13.635 2°56.019 -999 341 13.1 100550 43
2011-06-07 07:02:38 51°13.636 2°56.019 -999 337 13.1 100550 43
2011-06-07 07:02:43 51°13.636 2°56.019 -999 344 13.1 100550 42
2011-06-07 07:02:48 51°13.636 2°56.019 -999 339 13.1 100550 42
2011-06-07 07:02:52 51°13.636 2°56.018 -999 341 13.1 100550 42
2011-06-07 07:02:57 51°13.636 2°56.019 -999 344 13.1 100550 42
2011-06-07 07:03:02 51°13.635 2°56.019 -999 347 13.1 100550 41
2011-06-07 07:03:08 51°13.635 2°56.019 -999 343 13.1 100550 41
2011-06-07 07:03:12 51°13.635 2°56.019 -999 345 13.1 100550 42
2011-06-07 07:03:17 51°13.635 2°56.019 -999 344 13.1 100550 42
2011-06-07 07:03:22 51°13.635 2°56.019 -999 334 13.1 100550 43
2011-06-07 07:03:28 51°13.635 2°56.019 -999 343 13.1 100550 43
2011-06-07 07:03:32 51°13.635 2°56.019 -999 335 13.1 100550 42
2011-06-07 07:03:37 51°13.635 2°56.019 -999 340 13.1 100550 42
2011-06-07 07:03:42 51°13.635 2°56.019 -999 336 13.1 100550 42
2011-06-07 07:03:48 51°13.635 2°56.019 -999 330 13.1 100550 42
2011-06-07 07:03:52 51°13.635 2°56.019 -999 330 13.1 100550 42
2011-06-07 07:03:57 51°13.635 2°56.019 -999 342 13.1 100550 42
2011-06-07 07:04:03 51°13.635 2°56.019 -999 341 13.1 100550 42
2011-06-07 07:04:08 51°13.635 2°56.019 -999 343 13.1 100550 42
2011-06-07 07:04:12 51°13.636 2°56.018 -999 344 13.1 100550 43
2011-06-07 07:04:17 51°13.636 2°56.018 -999 342 13.1 100550 43
2011-06-07 07:04:22 51°13.636 2°56.018 -999 347 13.1 100550 43
2011-06-07 07:04:28 51°13.636 2°56.018 -999 342 13.1 100550 43
2011-06-07 07:04:32 51°13.636 2°56.018 -999 338 13.1 100550 42
2011-06-07 07:04:37 51°13.636 2°56.018 -999 337 13.1 100550 42
2011-06-07 07:04:42 51°13.636 2°56.018 -999 346 13.1 100550 42
2011-06-07 07:04:48 51°13.635 2°56.018 -999 332 13.1 100550 42
2011-06-07 07:04:52 51°13.635 2°56.018 -999 323 13.1 100550 42
2011-06-07 07:04:57 51°13.635 2°56.018 -999 338 13.1 100550 42
2011-06-07 07:05:02 51°13.635 2°56.018 -999 341 13.1 100550 43
2011-06-07 07:05:08 51°13.635 2°56.018 -999 338 13.1 100550 43
2011-06-07 07:05:12 51°13.635 2°56.018 -999 338 13.1 100550 42
2011-06-07 07:05:18 51°13.635 2°56.018 -999 339 13.1 100550 42
2011-06-07 07:05:23 51°13.635 2°56.018 -999 341 13.1 100550 42
2011-06-07 07:05:28 51°13.635 2°56.018 -999 337 13.1 100550 42
2011-06-07 07:05:32 51°13.636 2°56.018 -999 336 13.1 100550 42
2011-06-07 07:05:37 51°13.636 2°56.017 -999 335 13.1 100550 42
2011-06-07 07:05:42 51°13.636 2°56.017 -999 336 13.1 100550 41
2011-06-07 07:05:47 51°13.636 2°56.017 -999 327 13.1 100550 41
2011-06-07 07:05:52 51°13.636 2°56.017 -999 325 13.1 100550 42
2011-06-07 07:05:57 51°13.636 2°56.017 -999 340 13.1 100550 42
2011-06-07 07:06:03 51°13.636 2°56.017 -999 342 13.1 100550 42
2011-06-07 07:06:07 51°13.636 2°56.017 -999 331 13.1 100550 42
2011-06-07 07:06:13 51°13.636 2°56.017 -999 332 13.1 100550 42
2011-06-07 07:06:17 51°13.636 2°56.017 -999 332 13.1 100550 42
2011-06-07 07:06:22 51°13.636 2°56.017 -999 337 13.1 100550 42
2011-06-07 07:06:27 51°13.636 2°56.017 -999 343 13.1 100550 42
2011-06-07 07:06:32 51°13.636 2°56.017 -999 351 13.1 100550 42
2011-06-07 07:06:37 51°13.636 2°56.017 -999 345 13.1 100550 42
2011-06-07 07:06:42 51°13.636 2°56.017 -999 346 13.1 100550 42
2011-06-07 07:06:47 51°13.636 2°56.017 -999 349 13.1 100550 42
2011-06-07 07:06:53 51°13.636 2°56.017 -999 350 13.1 100550 43
2011-06-07 07:06:57 51°13.636 2°56.017 -999 349 13.1 100550 43
2011-06-07 07:07:02 51°13.636 2°56.017 -999 350 13.1 100550 42
2011-06-07 07:07:07 51°13.636 2°56.017 -999 350 13.1 100550 42
2011-06-07 07:07:12 51°13.636 2°56.017 -999 345 13.1 100550 42
2011-06-07 07:07:17 51°13.636 2°56.017 -999 350 13.1 100550 42
2011-06-07 07:07:22 51°13.636 2°56.016 -999 340 13.1 100550 42
2011-06-07 07:07:27 51°13.636 2°56.016 -999 343 13.1 100550 42
2011-06-07 07:07:32 51°13.636 2°56.017 -999 343 13.1 100550 42
2011-06-07 07:07:37 51°13.636 2°56.017 -999 360 13.1 100550 42
2011-06-07 07:07:42 51°13.635 2°56.017 -999 360 13.1 100550 42
2011-06-07 07:07:48 51°13.635 2°56.016 -999 359 13.1 100550 42
2011-06-07 07:07:52 51°13.635 2°56.016 -999 -999 13.1 100550 42
2011-06-07 07:07:57 51°13.635 2°56.016 -999 341 13.1 100550 42
2011-06-07 07:08:02 51°13.635 2°56.016 -999 345 13.1 100560 42
2011-06-07 07:08:07 51°13.635 2°56.017 -999 347 13.1 100560 42
2011-06-07 07:08:12 51°13.635 2°56.017 -999 355 13.1 100560 42
2011-06-07 07:08:17 51°13.635 2°56.017 -999 355 13.1 100560 42
2011-06-07 07:08:22 51°13.635 2°56.017 -999 345 13.1 100560 41
2011-06-07 07:08:28 51°13.635 2°56.017 -999 336 13.1 100560 41
2011-06-07 07:08:33 51°13.635 2°56.017 -999 336 13.2 100560 42
2011-06-07 07:08:38 51°13.635 2°56.017 -999 344 13.2 100560 42
2011-06-07 07:08:43 51°13.635 2°56.017 -999 345 13.1 100550 43
2011-06-07 07:08:48 51°13.635 2°56.017 -999 346 13.1 100550 43
2011-06-07 07:08:53 51°13.635 2°56.017 -999 346 13.1 100560 43
2011-06-07 07:08:58 51°13.635 2°56.017 -999 347 13.1 100560 43
2011-06-07 07:09:03 51°13.635 2°56.016 -999 349 13.2 100550 43
2011-06-07 07:09:08 51°13.635 2°56.016 -999 351 13.2 100550 43
2011-06-07 07:09:13 51°13.636 2°56.016 -999 351 13.2 100550 42
2011-06-07 07:09:17 51°13.636 2°56.016 -999 354 13.2 100550 42
2011-06-07 07:09:23 51°13.636 2°56.016 -999 355 13.2 100550 42
2011-06-07 07:09:28 51°13.636 2°56.016 -999 349 13.2 100550 42
2011-06-07 07:09:33 51°13.636 2°56.016 -999 346 13.2 100560 42
2011-06-07 07:09:37 51°13.636 2°56.016 -999 341 13.2 100560 42
2011-06-07 07:09:43 51°13.636 2°56.016 -999 337 13.1 100550 42
2011-06-07 07:09:48 51°13.636 2°56.016 -999 345 13.1 100550 42
2011-06-07 07:09:53 51°13.636 2°56.016 -999 342 13.2 100560 43
2011-06-07 07:09:57 51°13.635 2°56.017 -999 359 13.2 100560 43
2011-06-07 07:10:03 51°13.635 2°56.017 -999 354 13.2 100560 43
2011-06-07 07:10:08 51°13.635 2°56.017 -999 349 13.2 100560 43
2011-06-07 07:10:13 51°13.635 2°56.017 -999 347 13.2 100550 42
2011-06-07 07:10:17 51°13.635 2°56.017 -999 357 13.2 100550 42
2011-06-07 07:10:23 51°13.636 2°56.017 -999 347 13.2 100560 43
2011-06-07 07:10:28 51°13.636 2°56.016 -999 356 13.2 100560 43
2011-06-07 07:10:33 51°13.636 2°56.016 -999 357 13.2 100550 43
2011-06-07 07:10:38 51°13.636 2°56.016 -999 348 13.2 100550 43
2011-06-07 07:10:42 51°13.636 2°56.016 -999 349 13.2 100550 43
2011-06-07 07:10:47 51°13.636 2°56.016 -999 347 13.2 100550 43
2011-06-07 07:10:53 51°13.636 2°56.016 -999 355 13.2 100550 42
2011-06-07 07:10:57 51°13.636 2°56.016 -999 354 13.2 100550 42
2011-06-07 07:11:03 51°13.636 2°56.016 -999 347 13.2 100560 41
2011-06-07 07:11:07 51°13.636 2°56.016 -999 358 13.2 100560 41
2011-06-07 07:11:12 51°13.636 2°56.016 -999 358 13.2 100550 42
2011-06-07 07:11:17 51°13.636 2°56.016 -999 349 13.2 100550 42
2011-06-07 07:11:22 51°13.636 2°56.016 -999 350 13.2 100550 42
2011-06-07 07:11:27 51°13.636 2°56.016 -999 358 13.2 100550 42
2011-06-07 07:11:32 51°13.636 2°56.016 -999 346 13.2 100550 42
2011-06-07 07:11:37 51°13.636 2°56.016 -999 355 13.2 100550 42
2011-06-07 07:11:43 51°13.636 2°56.017 -999 352 13.2 100550 42
2011-06-07 07:11:49 51°13.636 2°56.017 -999 344 13.2 100550 42
2011-06-07 07:11:52 51°13.636 2°56.017 -999 344 13.1 100550 42
2011-06-07 07:11:57 51°13.636 2°56.016 -999 347 13.1 100550 42
2011-06-07 07:12:02 51°13.636 2°56.016 -999 346 13.2 100550 43
2011-06-07 07:12:07 51°13.636 2°56.016 -999 344 13.2 100550 43
2011-06-07 07:12:13 51°13.636 2°56.016 -999 343 13.2 100550 43
2011-06-07 07:12:17 51°13.636 2°56.016 -999 350 13.2 100550 43
2011-06-07 07:12:22 51°13.636 2°56.017 -999 343 13.2 100550 43
2011-06-07 07:12:27 51°13.636 2°56.017 -999 350 13.2 100550 43
2011-06-07 07:12:32 51°13.636 2°56.017 -999 354 13.2 100550 42
2011-06-07 07:12:37 51°13.636 2°56.017 -999 345 13.2 100550 42
2011-06-07 07:12:43 51°13.636 2°56.017 -999 339 13.2 100550 43
2011-06-07 07:12:47 51°13.636 2°56.017 -999 338 13.2 100550 43
2011-06-07 07:12:53 51°13.636 2°56.017 -999 332 13.2 100550 43
2011-06-07 07:12:57 51°13.636 2°56.017 -999 341 13.2 100550 43
2011-06-07 07:13:02 51°13.636 2°56.017 -999 335 13.2 100550 43
2011-06-07 07:13:07 51°13.636 2°56.017 -999 336 13.2 100550 43
2011-06-07 07:13:13 51°13.636 2°56.017 -999 340 13.3 100550 42
2011-06-07 07:13:17 51°13.636 2°56.017 -999 337 13.3 100550 42
2011-06-07 07:13:22 51°13.636 2°56.017 -999 339 13.3 100550 43
2011-06-07 07:13:27 51°13.636 2°56.017 -999 346 13.3 100550 43
2011-06-07 07:13:32 51°13.636 2°56.017 -999 350 13.3 100540 43
2011-06-07 07:13:37 51°13.636 2°56.017 -999 346 13.3 100540 43
2011-06-07 07:13:41 51°13.636 2°56.017 -999 335 13.3 100550 41
2011-06-07 07:13:47 51°13.636 2°56.017 -999 340 13.3 100550 41
2011-06-07 07:13:53 51°13.636 2°56.017 -999 340 13.3 100550 42
2011-06-07 07:13:57 51°13.636 2°56.017 -999 343 13.3 100550 42
2011-06-07 07:14:03 51°13.636 2°56.017 -999 346 13.2 100550 42
2011-06-07 07:14:08 51°13.636 2°56.017 -999 348 13.2 100550 42
2011-06-07 07:14:13 51°13.636 2°56.017 -999 346 13.3 100540 42
2011-06-07 07:14:17 51°13.636 2°56.017 -999 341 13.3 100540 42
2011-06-07 07:14:22 51°13.636 2°56.017 -999 342 13.3 100550 42
2011-06-07 07:14:28 51°13.636 2°56.017 -999 345 13.3 100550 42
2011-06-07 07:14:33 51°13.636 2°56.017 -999 347 13.2 100550 42
2011-06-07 07:14:37 51°13.635 2°56.017 -999 344 13.2 100550 42
2011-06-07 07:14:42 51°13.635 2°56.017 -999 347 13.3 100550 42
2011-06-07 07:14:47 51°13.635 2°56.017 -999 346 13.3 100550 42
2011-06-07 07:14:52 51°13.635 2°56.017 -999 345 13.2 100550 42
2011-06-07 07:14:57 51°13.635 2°56.017 -999 345 13.2 100550 42
2011-06-07 07:15:04 51°13.635 2°56.017 -999 343 13.3 100550 43
2011-06-07 07:15:09 51°13.635 2°56.016 -999 359 13.3 100550 43
2011-06-07 07:15:14 51°13.635 2°56.015 -999 5 13.3 100550 43
2011-06-07 07:15:20 51°13.636 2°56.012 -999 11 13.3 100550 43
2011-06-07 07:15:25 51°13.637 2°56.008 -999 14 13.3 100550 43
2011-06-07 07:15:29 51°13.638 2°56.004 -999 18 13.3 100550 43
2011-06-07 07:15:34 51°13.639 2°55.999 -999 23 13.3 100550 42
2011-06-07 07:15:40 51°13.641 2°55.992 -999 35 13.3 100550 42
2011-06-07 07:15:45 51°13.643 2°55.986 -999 18 13.3 100550 43
2011-06-07 07:15:51 51°13.645 2°55.978 -999 21 13.3 100550 43
2011-06-07 07:15:56 51°13.647 2°55.971 -999 38 13.3 100550 43
2011-06-07 07:16:01 51°13.649 2°55.963 -999 22 13.3 100550 43
2011-06-07 07:16:07 51°13.652 2°55.954 -999 24 13.3 100550 43
2011-06-07 07:16:11 51°13.653 2°55.947 -999 14 13.3 100550 43
2011-06-07 07:16:16 51°13.656 2°55.939 -999 17 13.3 100550 43
2011-06-07 07:16:21 51°13.658 2°55.929 -999 16 13.3 100550 43
2011-06-07 07:16:26 51°13.66 2°55.92 -999 15 13.3 100550 41
2011-06-07 07:16:32 51°13.662 2°55.909 -999 29 13.3 100550 41
2011-06-07 07:16:36 51°13.664 2°55.901 -999 23 13.3 100550 43
2011-06-07 07:16:41 51°13.666 2°55.892 -999 36 13.3 100550 43
2011-06-07 07:16:46 51°13.668 2°55.882 -999 36 13.3 100550 43
2011-06-07 07:16:52 51°13.671 2°55.87 -999 21 13.3 100550 43
2011-06-07 07:16:56 51°13.672 2°55.862 -999 19 13.3 100550 43
2011-06-07 07:17:01 51°13.674 2°55.853 -999 17 13.3 100550 43
2011-06-07 07:17:06 51°13.676 2°55.843 -999 13 13.3 100550 43
2011-06-07 07:17:11 51°13.678 2°55.834 0.1 19 13.3 100550 43
2011-06-07 07:17:16 51°13.68 2°55.825 0.1 24 13.3 100550 41
2011-06-07 07:17:21 51°13.683 2°55.816 -999 13 13.3 100550 41
2011-06-07 07:17:27 51°13.686 2°55.805 -999 12 13.3 100550 42
2011-06-07 07:17:31 51°13.688 2°55.798 -999 8 13.3 100550 42
2011-06-07 07:17:36 51°13.691 2°55.79 -999 7 13.3 100550 42
2011-06-07 07:17:41 51°13.695 2°55.782 -999 29 13.3 100550 42
2011-06-07 07:17:46 51°13.698 2°55.774 -999 15 13.3 100550 42
2011-06-07 07:17:51 51°13.702 2°55.766 -999 19 13.3 100550 42
2011-06-07 07:17:56 51°13.705 2°55.758 -999 20 13.3 100550 42
2011-06-07 07:18:01 51°13.709 2°55.75 -999 8 13.3 100550 42
2011-06-07 07:18:06 51°13.713 2°55.743 -999 8 13.3 100550 42
2011-06-07 07:18:12 51°13.717 2°55.734 -999 8 13.3 100550 42
2011-06-07 07:18:17 51°13.722 2°55.727 -999 8 13.3 100550 42
2011-06-07 07:18:21 51°13.725 2°55.721 -999 10 13.3 100550 42
2011-06-07 07:18:26 51°13.731 2°55.714 -999 24 13.3 100550 42
2011-06-07 07:18:31 51°13.736 2°55.707 -999 34 13.3 100550 42
2011-06-07 07:18:36 51°13.742 2°55.7 -999 34 13.3 100540 43
2011-06-07 07:18:41 51°13.748 2°55.694 -999 34 13.3 100540 43
2011-06-07 07:18:45 51°13.753 2°55.688 -999 34 13.3 100550 43
2011-06-07 07:18:52 51°13.761 2°55.679 -999 35 13.3 100550 43
2011-06-07 07:18:55 51°13.766 2°55.675 -999 24 13.3 100550 43
2011-06-07 07:19:02 51°13.776 2°55.669 -999 36 13.3 100550 43
2011-06-07 07:19:06 51°13.782 2°55.664 -999 25 13.4 100540 41
2011-06-07 07:19:12 51°13.787 2°55.655 -999 263 13.4 100540 41
2011-06-07 07:19:17 51°13.794 2°55.649 -999 257 13.4 100540 43
2011-06-07 07:19:22 51°13.8 2°55.644 -999 261 13.4 100540 43
2011-06-07 07:19:26 51°13.806 2°55.639 -999 263 13.4 100550 43
2011-06-07 07:19:31 51°13.813 2°55.635 -999 261 13.4 100550 43
2011-06-07 07:19:37 51°13.821 2°55.629 -999 260 13.4 100540 43
2011-06-07 07:19:42 51°13.829 2°55.626 -999 261 13.4 100540 43
2011-06-07 07:19:46 51°13.835 2°55.623 -999 261 13.4 100540 43
2011-06-07 07:19:51 51°13.842 2°55.62 -999 263 13.4 100540 43
2011-06-07 07:19:56 51°13.85 2°55.617 -999 263 13.4 100540 43
2011-06-07 07:20:02 51°13.858 2°55.614 -999 253 13.4 100540 43
2011-06-07 07:20:06 51°13.864 2°55.613 -999 253 13.5 100540 43
2011-06-07 07:20:12 51°13.873 2°55.612 -999 260 13.5 100540 43
2011-06-07 07:20:16 51°13.879 2°55.611 0.1 265 13.5 100540 43
2011-06-07 07:20:22 51°13.888 2°55.611 0.1 45 13.5 100540 43
2011-06-07 07:20:26 51°13.894 2°55.611 0.1 30 13.5 100540 43
2011-06-07 07:20:31 51°13.901 2°55.612 0.1 267 13.5 100540 43
2011-06-07 07:20:36 51°13.908 2°55.613 0.1 268 13.5 100550 43
2011-06-07 07:20:41 51°13.914 2°55.614 -999 267 13.5 100550 43
2011-06-07 07:20:46 51°13.92 2°55.616 -999 264 13.5 100540 43
2011-06-07 07:20:50 51°13.925 2°55.617 -999 255 13.5 100540 43
2011-06-07 07:20:55 51°13.931 2°55.619 -999 260 13.5 100540 43
2011-06-07 07:21:00 51°13.936 2°55.622 -999 258 13.5 100540 43
2011-06-07 07:21:05 51°13.941 2°55.624 -999 259 13.5 100550 43
2011-06-07 07:21:10 51°13.946 2°55.627 0.1 260 13.5 100550 43
2011-06-07 07:21:15 51°13.95 2°55.63 0.1 259 13.5 100550 43
2011-06-07 07:21:20 51°13.953 2°55.633 1.8 257 13.5 100550 43
2011-06-07 07:21:25 51°13.956 2°55.635 2 257 13.5 100550 43
2011-06-07 07:21:29 51°13.957 2°55.636 1.4 255 13.5 100550 43
2011-06-07 07:21:34 51°13.959 2°55.636 2.1 253 13.5 100550 43
2011-06-07 07:21:39 51°13.959 2°55.637 2.7 254 13.5 100550 43
2011-06-07 07:21:45 51°13.96 2°55.636 1.6 19 13.5 100540 40
2011-06-07 07:21:50 51°13.96 2°55.635 2.4 252 13.5 100540 40
2011-06-07 07:21:55 51°13.96 2°55.631 2.3 254 13.5 100540 42
2011-06-07 07:21:59 51°13.96 2°55.627 0.4 254 13.5 100540 42
2011-06-07 07:22:04 51°13.96 2°55.621 0.7 254 13.5 100540 42
2011-06-07 07:22:09 51°13.961 2°55.613 0.1 256 13.5 100540 42
2011-06-07 07:22:14 51°13.962 2°55.605 0.1 256 13.5 100540 43
2011-06-07 07:22:19 51°13.965 2°55.597 -999 258 13.5 100540 43
2011-06-07 07:22:23 51°13.968 2°55.59 -999 258 13.5 100540 42
2011-06-07 07:22:28 51°13.972 2°55.581 -999 257 13.5 100540 42
2011-06-07 07:22:33 51°13.977 2°55.573 -999 257 13.5 100540 43
2011-06-07 07:22:38 51°13.983 2°55.565 -999 261 13.5 100540 43
2011-06-07 07:22:43 51°13.989 2°55.556 -999 261 13.5 100540 43
2011-06-07 07:22:48 51°13.996 2°55.548 -999 260 13.5 100540 43
2011-06-07 07:22:53 51°14.003 2°55.539 -999 260 13.5 100540 42
2011-06-07 07:22:58 51°14.011 2°55.531 -999 318 13.5 100540 42
2011-06-07 07:23:03 51°14.02 2°55.522 -999 319 13.5 100540 43
2011-06-07 07:23:07 51°14.027 2°55.514 -999 319 13.5 100540 43
2011-06-07 07:23:13 51°14.038 2°55.503 -999 320 13.5 100540 43
2011-06-07 07:23:18 51°14.048 2°55.494 -999 322 13.5 100540 43
2011-06-07 07:23:22 51°14.056 2°55.487 -999 321 13.5 100540 43
2011-06-07 07:23:27 51°14.066 2°55.478 -999 35 13.5 100540 43
2011-06-07 07:23:33 51°14.079 2°55.466 -999 23 13.5 100540 43
2011-06-07 07:23:37 51°14.087 2°55.458 -999 238 13.5 100540 43
2011-06-07 07:23:43 51°14.1 2°55.447 -999 24 13.5 100540 43
2011-06-07 07:23:47 51°14.109 2°55.439 -999 35 13.5 100540 43
2011-06-07 07:23:53 51°14.122 2°55.426 -999 23 13.5 100540 43
2011-06-07 07:23:58 51°14.133 2°55.416 -999 246 13.5 100540 43
2011-06-07 07:24:03 51°14.144 2°55.404 -999 24 13.5 100540 43
2011-06-07 07:24:07 51°14.154 2°55.396 -999 35 13.5 100540 43
2011-06-07 07:24:13 51°14.168 2°55.382 -999 24 13.5 100540 43
2011-06-07 07:24:18 51°14.179 2°55.37 -999 333 13.5 100540 43
2011-06-07 07:24:23 51°14.191 2°55.359 -999 331 13.5 100540 41
2011-06-07 07:24:28 51°14.203 2°55.347 -999 330 13.5 100540 41
2011-06-07 07:24:33 51°14.215 2°55.335 -999 336 13.5 100540 43
2011-06-07 07:24:38 51°14.227 2°55.323 -999 327 13.5 100540 43
2011-06-07 07:24:43 51°14.239 2°55.31 -999 328 13.5 100540 43
2011-06-07 07:24:47 51°14.249 2°55.299 -999 330 13.5 100540 43
2011-06-07 07:24:52 51°14.26 2°55.285 -999 331 13.5 100540 43
2011-06-07 07:24:58 51°14.275 2°55.268 -999 322 13.5 100540 43
2011-06-07 07:25:03 51°14.287 2°55.254 -999 322 13.5 100540 43
2011-06-07 07:25:07 51°14.297 2°55.243 -999 322 13.5 100540 43
2011-06-07 07:25:12 51°14.309 2°55.229 -999 325 13.5 100540 43
2011-06-07 07:25:17 51°14.322 2°55.215 -999 316 13.5 100540 43
2011-06-07 07:25:23 51°14.337 2°55.199 -999 317 13.5 100540 43
2011-06-07 07:25:28 51°14.349 2°55.185 -999 318 13.5 100540 43
2011-06-07 07:25:33 51°14.362 2°55.171 -999 318 13.5 100540 43
2011-06-07 07:25:38 51°14.375 2°55.157 -999 317 13.5 100540 43
2011-06-07 07:25:43 51°14.388 2°55.144 -999 319 13.5 100540 43
2011-06-07 07:25:48 51°14.401 2°55.13 -999 321 13.5 100540 43
2011-06-07 07:25:53 51°14.414 2°55.117 -999 322 13.5 100540 42
2011-06-07 07:25:57 51°14.425 2°55.106 -999 324 13.5 100540 42
2011-06-07 07:26:03 51°14.441 2°55.091 -999 324 13.5 100540 42
2011-06-07 07:26:08 51°14.454 2°55.078 -999 321 13.5 100540 42
2011-06-07 07:26:13 51°14.468 2°55.065 -999 323 13.5 100540 42
2011-06-07 07:26:18 51°14.481 2°55.051 -999 321 13.5 100540 42
2011-06-07 07:26:23 51°14.494 2°55.037 -999 318 13.5 100540 42
2011-06-07 07:26:28 51°14.508 2°55.023 -999 317 13.5 100540 42
2011-06-07 07:26:32 51°14.518 2°55.011 -999 320 13.5 100540 42
2011-06-07 07:26:38 51°14.534 2°54.993 -999 325 13.5 100540 42
2011-06-07 07:26:43 51°14.547 2°54.979 -999 322 13.5 100540 42
2011-06-07 07:26:48 51°14.56 2°54.963 -999 326 13.5 100540 42
2011-06-07 07:26:52 51°14.57 2°54.951 -999 327 13.5 100540 42
2011-06-07 07:26:58 51°14.586 2°54.932 -999 328 13.5 100540 42
2011-06-07 07:27:03 51°14.598 2°54.916 -999 327 13.4 100540 41
2011-06-07 07:27:08 51°14.611 2°54.899 -999 325 13.4 100540 41
2011-06-07 07:27:12 51°14.621 2°54.886 -999 324 13.4 100540 42
2011-06-07 07:27:17 51°14.633 2°54.869 -999 323 13.4 100540 42
2011-06-07 07:27:23 51°14.649 2°54.849 -999 328 13.4 100540 42
2011-06-07 07:27:28 51°14.661 2°54.832 -999 328 13.4 100540 42
2011-06-07 07:27:32 51°14.672 2°54.819 -999 329 13.4 100540 42
2011-06-07 07:27:37 51°14.685 2°54.803 -999 332 13.4 100540 42
2011-06-07 07:27:42 51°14.698 2°54.787 -999 333 13.5 100540 42
2011-06-07 07:27:48 51°14.715 2°54.768 -999 331 13.5 100540 42
2011-06-07 07:27:52 51°14.725 2°54.755 -999 328 13.5 100530 42
2011-06-07 07:27:57 51°14.739 2°54.74 -999 330 13.5 100530 42
2011-06-07 07:28:03 51°14.756 2°54.722 -999 330 13.5 100540 42
2011-06-07 07:28:08 51°14.77 2°54.708 -999 329 13.5 100540 42
2011-06-07 07:28:13 51°14.784 2°54.693 -999 330 13.4 100540 42
2011-06-07 07:28:18 51°14.798 2°54.679 -999 328 13.4 100540 42
2011-06-07 07:28:23 51°14.812 2°54.664 -999 329 13.5 100530 42
2011-06-07 07:28:28 51°14.826 2°54.65 -999 327 13.5 100530 42
2011-06-07 07:28:33 51°14.841 2°54.636 -999 327 13.5 100540 43
2011-06-07 07:28:37 51°14.852 2°54.624 -999 322 13.5 100540 43
2011-06-07 07:28:43 51°14.869 2°54.607 -999 324 13.5 100540 43
2011-06-07 07:28:48 51°14.884 2°54.591 -999 324 13.5 100540 43
2011-06-07 07:28:53 51°14.898 2°54.576 -999 324 13.5 100540 43
2011-06-07 07:28:58 51°14.913 2°54.56 -999 323 13.5 100540 43
2011-06-07 07:29:03 51°14.927 2°54.543 -999 325 13.5 100540 42
2011-06-07 07:29:08 51°14.942 2°54.526 -999 323 13.5 100540 42
2011-06-07 07:29:13 51°14.956 2°54.508 -999 325 13.5 100540 42
2011-06-07 07:29:18 51°14.971 2°54.491 -999 323 13.5 100540 42
2011-06-07 07:29:22 51°14.983 2°54.477 -999 324 13.4 100540 42
2011-06-07 07:29:28 51°15 2°54.456 -999 326 13.4 100540 42
2011-06-07 07:29:33 51°15.015 2°54.438 -999 331 13.5 100540 42
2011-06-07 07:29:37 51°15.027 2°54.424 -999 326 13.5 100540 42
2011-06-07 07:29:43 51°15.045 2°54.404 -999 325 13.4 100540 41
2011-06-07 07:29:48 51°15.06 2°54.387 -999 323 13.4 100540 41
2011-06-07 07:29:53 51°15.075 2°54.369 -999 324 13.5 100540 42
2011-06-07 07:29:57 51°15.087 2°54.356 -999 329 13.5 100540 42
2011-06-07 07:30:01 51°15.099 2°54.343 -999 330 13.5 100540 42
2011-06-07 07:30:08 51°15.121 2°54.32 -999 325 13.5 100540 42
2011-06-07 07:30:13 51°15.136 2°54.305 -999 325 13.5 100540 43
2011-06-07 07:30:17 51°15.149 2°54.292 -999 329 13.5 100540 43
2011-06-07 07:30:23 51°15.167 2°54.273 -999 326 13.5 100540 43
2011-06-07 07:30:28 51°15.183 2°54.257 -999 327 13.5 100540 43
2011-06-07 07:30:33 51°15.198 2°54.241 -999 324 13.5 100540 43
2011-06-07 07:30:37 51°15.21 2°54.228 -999 327 13.5 100540 43
2011-06-07 07:30:43 51°15.228 2°54.207 -999 322 13.5 100540 42
2011-06-07 07:30:48 51°15.243 2°54.189 -999 318 13.5 100540 42
2011-06-07 07:30:53 51°15.257 2°54.171 -999 317 13.5 100540 43
2011-06-07 07:30:57 51°15.268 2°54.156 -999 318 13.5 100540 43
2011-06-07 07:31:02 51°15.282 2°54.136 -999 316 13.5 100540 43
2011-06-07 07:31:08 51°15.298 2°54.113 -999 317 13.5 100540 43
2011-06-07 07:31:12 51°15.308 2°54.096 -999 316 13.6 100530 43
2011-06-07 07:31:17 51°15.322 2°54.076 -999 315 13.6 100530 43
2011-06-07 07:31:23 51°15.338 2°54.052 -999 24 13.6 100540 43
2011-06-07 07:31:28 51°15.351 2°54.031 -999 35 13.6 100540 43
2011-06-07 07:31:33 51°15.363 2°54.01 -999 24 13.6 100540 43
2011-06-07 07:31:38 51°15.376 2°53.989 -999 35 13.6 100540 43
2011-06-07 07:31:42 51°15.386 2°53.972 -999 315 13.6 100540 43
2011-06-07 07:31:47 51°15.398 2°53.952 -999 316 13.6 100540 43
2011-06-07 07:31:52 51°15.411 2°53.932 -999 316 13.6 100540 43
2011-06-07 07:31:58 51°15.428 2°53.908 -999 318 13.6 100540 43
2011-06-07 07:32:02 51°15.438 2°53.893 -999 317 13.6 100540 43
2011-06-07 07:32:07 51°15.452 2°53.875 -999 318 13.6 100540 43
2011-06-07 07:32:13 51°15.469 2°53.853 -999 318 13.6 100540 42
2011-06-07 07:32:18 51°15.483 2°53.835 -999 319 13.6 100540 42
2011-06-07 07:32:22 51°15.494 2°53.821 -999 320 13.6 100540 41
2011-06-07 07:32:27 51°15.509 2°53.804 -999 322 13.6 100540 41
2011-06-07 07:32:33 51°15.526 2°53.783 -999 322 13.6 100540 43
2011-06-07 07:32:38 51°15.54 2°53.766 -999 318 13.6 100540 43
2011-06-07 07:32:42 51°15.552 2°53.752 -999 318 13.6 100540 43
2011-06-07 07:32:47 51°15.566 2°53.736 -999 325 13.6 100540 43
2011-06-07 07:32:52 51°15.58 2°53.718 -999 319 13.6 100540 43
2011-06-07 07:32:58 51°15.597 2°53.697 -999 323 13.6 100540 43
2011-06-07 07:33:02 51°15.609 2°53.683 0.1 327 13.6 100540 43
2011-06-07 07:33:07 51°15.623 2°53.666 1.6 324 13.6 100540 43
2011-06-07 07:33:12 51°15.637 2°53.648 1.8 322 13.6 100540 42
2011-06-07 07:33:18 51°15.654 2°53.626 1.5 324 13.6 100540 42
2011-06-07 07:33:22 51°15.665 2°53.612 1.5 324 13.6 100550 42
2011-06-07 07:33:26 51°15.676 2°53.597 0.2 322 13.6 100550 42
2011-06-07 07:33:32 51°15.692 2°53.574 0.1 323 13.6 100550 44
2011-06-07 07:33:37 51°15.706 2°53.555 0.1 320 13.6 100550 44
2011-06-07 07:33:43 51°15.722 2°53.531 -999 317 13.6 100550 43
2011-06-07 07:33:48 51°15.735 2°53.512 -999 35 13.6 100550 43
2011-06-07 07:33:53 51°15.748 2°53.493 -999 24 13.6 100540 42
2011-06-07 07:33:58 51°15.762 2°53.475 -999 316 13.6 100540 42
2011-06-07 07:34:03 51°15.777 2°53.457 -999 316 13.6 100550 43
2011-06-07 07:34:08 51°15.791 2°53.44 -999 316 13.6 100550 43
2011-06-07 07:34:13 51°15.806 2°53.424 -999 316 13.6 100540 43
2011-06-07 07:34:18 51°15.821 2°53.409 -999 321 13.6 100540 43
2011-06-07 07:34:23 51°15.836 2°53.394 1.2 324 13.6 100540 42
2011-06-07 07:34:28 51°15.852 2°53.38 1.7 323 13.6 100540 42
2011-06-07 07:34:33 51°15.868 2°53.366 1.5 323 13.6 100550 42
2011-06-07 07:34:38 51°15.884 2°53.352 1.6 329 13.6 100550 42
2011-06-07 07:34:43 51°15.9 2°53.34 1 330 13.6 100550 43
2011-06-07 07:34:47 51°15.913 2°53.329 1.3 330 13.6 100550 43
2011-06-07 07:34:52 51°15.929 2°53.317 1.4 330 13.6 100550 41
2011-06-07 07:34:58 51°15.949 2°53.303 1.6 330 13.6 100550 41
2011-06-07 07:35:03 51°15.965 2°53.291 1.8 330 13.6 100550 42
2011-06-07 07:35:07 51°15.979 2°53.281 0.4 327 13.6 100550 42
2011-06-07 07:35:12 51°15.995 2°53.268 0.2 328 13.6 100550 42
2011-06-07 07:35:18 51°16.015 2°53.254 0.1 329 13.6 100550 42
2011-06-07 07:35:23 51°16.031 2°53.241 -999 329 13.6 100550 43
2011-06-07 07:35:27 51°16.044 2°53.23 -999 327 13.6 100550 43
2011-06-07 07:35:32 51°16.06 2°53.216 -999 328 13.6 100550 42
2011-06-07 07:35:37 51°16.076 2°53.202 -999 329 13.6 100550 42
2011-06-07 07:35:43 51°16.095 2°53.185 -999 328 13.5 100550 42
2011-06-07 07:35:48 51°16.111 2°53.17 -999 326 13.5 100550 42
2011-06-07 07:35:52 51°16.123 2°53.159 -999 326 13.6 100550 42
2011-06-07 07:35:58 51°16.142 2°53.141 -999 320 13.6 100550 42
2011-06-07 07:36:03 51°16.158 2°53.126 -999 321 13.6 100550 42
2011-06-07 07:36:08 51°16.174 2°53.112 -999 316 13.6 100550 42
2011-06-07 07:36:12 51°16.186 2°53.1 -999 321 13.6 100550 42
2011-06-07 07:36:17 51°16.202 2°53.087 -999 319 13.6 100550 42
2011-06-07 07:36:22 51°16.219 2°53.073 -999 319 13.6 100550 42
2011-06-07 07:36:28 51°16.239 2°53.058 -999 319 13.6 100550 42
2011-06-07 07:36:33 51°16.255 2°53.046 -999 323 13.6 100550 43
2011-06-07 07:36:38 51°16.272 2°53.034 -999 327 13.6 100550 43
2011-06-07 07:36:43 51°16.288 2°53.022 -999 321 13.6 100550 43
2011-06-07 07:36:48 51°16.305 2°53.01 -999 322 13.6 100550 43
2011-06-07 07:36:53 51°16.321 2°52.997 -999 322 13.6 100550 42
2011-06-07 07:36:57 51°16.335 2°52.988 -999 315 13.6 100550 42
2011-06-07 07:37:01 51°16.348 2°52.977 -999 316 13.6 100550 43
2011-06-07 07:37:08 51°16.371 2°52.959 -999 315 13.6 100550 43
2011-06-07 07:37:13 51°16.387 2°52.946 -999 24 13.6 100550 43
2011-06-07 07:37:17 51°16.4 2°52.935 -999 35 13.6 100550 43
2011-06-07 07:37:21 51°16.413 2°52.924 0.1 24 13.6 100550 43
2011-06-07 07:37:27 51°16.432 2°52.907 0.9 322 13.6 100550 43
2011-06-07 07:37:33 51°16.451 2°52.891 0.8 328 13.6 100550 43
2011-06-07 07:37:37 51°16.464 2°52.88 0.8 320 13.6 100550 43
2011-06-07 07:37:42 51°16.481 2°52.868 0.7 320 13.7 100550 40
2011-06-07 07:37:48 51°16.5 2°52.853 0.5 325 13.7 100550 40
2011-06-07 07:37:52 51°16.514 2°52.844 0.9 325 13.6 100550 42
2011-06-07 07:37:58 51°16.534 2°52.83 0.7 327 13.6 100550 42
2011-06-07 07:38:02 51°16.548 2°52.821 0.5 326 13.6 100550 42
2011-06-07 07:38:07 51°16.565 2°52.81 0.3 325 13.6 100550 42
2011-06-07 07:38:12 51°16.582 2°52.8 0.5 325 13.6 100550 44
2011-06-07 07:38:18 51°16.602 2°52.787 0.9 325 13.6 100550 44
2011-06-07 07:38:22 51°16.616 2°52.779 1.6 326 13.6 100550 42
2011-06-07 07:38:27 51°16.633 2°52.769 1.4 329 13.6 100550 42
2011-06-07 07:38:32 51°16.65 2°52.76 1.6 323 13.7 100550 42
2011-06-07 07:38:38 51°16.671 2°52.748 1.2 322 13.7 100550 42
2011-06-07 07:38:42 51°16.684 2°52.74 1.4 324 13.6 100560 42
2011-06-07 07:38:47 51°16.701 2°52.73 0.5 322 13.6 100560 42
2011-06-07 07:38:53 51°16.721 2°52.717 0.9 322 13.7 100550 44
2011-06-07 07:38:58 51°16.738 2°52.705 0.8 319 13.7 100550 44
2011-06-07 07:39:02 51°16.751 2°52.696 0.4 320 13.7 100550 42
2011-06-07 07:39:07 51°16.768 2°52.684 0.1 321 13.7 100550 42
2011-06-07 07:39:12 51°16.784 2°52.671 1.3 322 13.6 100550 41
2011-06-07 07:39:18 51°16.803 2°52.657 0.6 317 13.6 100550 41
2011-06-07 07:39:22 51°16.816 2°52.646 1.7 23 13.6 100550 42
2011-06-07 07:39:27 51°16.833 2°52.634 1.2 235 13.6 100550 42
2011-06-07 07:39:33 51°16.852 2°52.618 0.6 20 13.6 100550 43
2011-06-07 07:39:38 51°16.868 2°52.606 0.2 316 13.6 100550 43
2011-06-07 07:39:42 51°16.882 2°52.596 0.4 22 13.6 100550 43
2011-06-07 07:39:47 51°16.898 2°52.584 0.6 321 13.6 100550 43
2011-06-07 07:39:53 51°16.918 2°52.57 0.3 319 13.6 100550 42
2011-06-07 07:39:58 51°16.935 2°52.558 0.1 320 13.6 100550 42
2011-06-07 07:40:02 51°16.948 2°52.55 0.1 320 13.6 100550 41
2011-06-07 07:40:07 51°16.965 2°52.539 0.2 322 13.6 100550 41
2011-06-07 07:40:12 51°16.983 2°52.53 0.2 327 13.6 100550 42
2011-06-07 07:40:18 51°17.004 2°52.521 0.1 329 13.6 100550 42
2011-06-07 07:40:22 51°17.018 2°52.516 0.1 329 13.6 100550 41
2011-06-07 07:40:27 51°17.035 2°52.51 0.1 336 13.6 100550 41
2011-06-07 07:40:32 51°17.053 2°52.504 0.1 337 13.6 100550 42
2011-06-07 07:40:38 51°17.075 2°52.499 0.1 334 13.6 100550 42
2011-06-07 07:40:42 51°17.089 2°52.496 0.1 337 13.6 100550 42
2011-06-07 07:40:47 51°17.107 2°52.492 0.1 334 13.6 100550 42
2011-06-07 07:40:52 51°17.125 2°52.489 0.1 336 13.6 100550 41
2011-06-07 07:40:58 51°17.147 2°52.485 -999 337 13.6 100550 41
2011-06-07 07:41:03 51°17.165 2°52.482 -999 337 13.6 100550 42
2011-06-07 07:41:08 51°17.183 2°52.479 0.1 337 13.6 100550 42
2011-06-07 07:41:13 51°17.201 2°52.476 0.2 337 13.6 100550 42
2011-06-07 07:41:18 51°17.219 2°52.472 0.2 338 13.6 100550 42
2011-06-07 07:41:23 51°17.237 2°52.467 0.1 338 13.6 100550 43
2011-06-07 07:41:28 51°17.255 2°52.463 0.1 335 13.6 100550 43
2011-06-07 07:41:33 51°17.273 2°52.457 0.1 335 13.6 100550 42
2011-06-07 07:41:38 51°17.291 2°52.452 0.1 333 13.6 100550 42
2011-06-07 07:41:43 51°17.308 2°52.446 0.1 331 13.6 100550 43
2011-06-07 07:41:47 51°17.323 2°52.441 1.3 328 13.6 100550 43
2011-06-07 07:41:53 51°17.344 2°52.433 1.8 329 13.6 100550 42
2011-06-07 07:41:58 51°17.362 2°52.426 1.9 324 13.6 100550 42
2011-06-07 07:42:03 51°17.379 2°52.419 1.2 323 13.6 100550 42
2011-06-07 07:42:07 51°17.394 2°52.415 1.8 324 13.6 100550 42
2011-06-07 07:42:12 51°17.411 2°52.409 1.5 322 13.6 100550 42
2011-06-07 07:42:17 51°17.429 2°52.403 1.3 328 13.6 100550 42
2011-06-07 07:42:23 51°17.45 2°52.397 1.3 327 13.7 100550 42
2011-06-07 07:42:28 51°17.468 2°52.393 0.8 327 13.7 100550 42
2011-06-07 07:42:32 51°17.482 2°52.391 0.8 326 13.7 100550 44
2011-06-07 07:42:38 51°17.503 2°52.388 0.8 322 13.7 100550 44
2011-06-07 07:42:43 51°17.521 2°52.388 1.6 326 13.7 100550 42
2011-06-07 07:42:48 51°17.538 2°52.387 0.8 331 13.7 100550 42
2011-06-07 07:42:52 51°17.553 2°52.387 0.7 332 13.7 100550 42
2011-06-07 07:42:57 51°17.57 2°52.388 1 334 13.7 100550 42
2011-06-07 07:43:02 51°17.588 2°52.39 0.9 333 13.7 100560 40
2011-06-07 07:43:08 51°17.608 2°52.392 0.9 331 13.7 100560 40
2011-06-07 07:43:12 51°17.622 2°52.395 0.4 332 13.7 100550 42
2011-06-07 07:43:17 51°17.64 2°52.398 1.4 335 13.7 100550 42
2011-06-07 07:43:22 51°17.657 2°52.401 1.8 332 13.7 100560 44
2011-06-07 07:43:28 51°17.678 2°52.404 1.3 338 13.7 100560 44
2011-06-07 07:43:32 51°17.692 2°52.406 1.6 338 13.7 100550 43
2011-06-07 07:43:37 51°17.709 2°52.408 2 339 13.7 100550 43
2011-06-07 07:43:43 51°17.73 2°52.41 1.2 341 13.7 100550 42
2011-06-07 07:43:48 51°17.748 2°52.412 1.6 341 13.7 100550 42
2011-06-07 07:43:53 51°17.765 2°52.414 1.4 338 13.7 100540 44
2011-06-07 07:43:58 51°17.782 2°52.419 1.9 342 13.7 100540 44
2011-06-07 07:44:02 51°17.796 2°52.423 2.1 342 13.7 100550 42
2011-06-07 07:44:08 51°17.816 2°52.431 2.8 344 13.7 100550 42
2011-06-07 07:44:13 51°17.833 2°52.439 1.1 346 13.7 100550 42
2011-06-07 07:44:18 51°17.849 2°52.448 1.7 348 13.7 100550 42
2011-06-07 07:44:22 51°17.863 2°52.455 1.8 348 13.7 100550 42
2011-06-07 07:44:27 51°17.879 2°52.464 1.3 351 13.7 100550 42
2011-06-07 07:44:33 51°17.898 2°52.475 1.8 348 13.7 100540 42
2011-06-07 07:44:38 51°17.915 2°52.485 1.3 349 13.7 100540 42
2011-06-07 07:44:42 51°17.927 2°52.494 1.1 351 13.7 100550 42
2011-06-07 07:44:47 51°17.943 2°52.504 0.9 352 13.7 100550 42
2011-06-07 07:44:53 51°17.963 2°52.516 1.4 350 13.6 100550 42
2011-06-07 07:44:58 51°17.979 2°52.526 1.7 352 13.6 100550 42
2011-06-07 07:45:02 51°17.993 2°52.534 2.3 351 13.6 100550 43
2011-06-07 07:45:08 51°18.012 2°52.545 2.4 352 13.6 100550 43
2011-06-07 07:45:13 51°18.028 2°52.555 2.9 352 13.6 100550 42
2011-06-07 07:45:18 51°18.045 2°52.565 2 353 13.6 100550 42
2011-06-07 07:45:23 51°18.062 2°52.574 1.1 355 13.6 100550 42
2011-06-07 07:45:28 51°18.078 2°52.583 1 350 13.6 100550 42
2011-06-07 07:45:33 51°18.095 2°52.592 1.3 354 13.6 100550 42
2011-06-07 07:45:38 51°18.111 2°52.6 1.1 351 13.6 100550 42
2011-06-07 07:45:42 51°18.125 2°52.607 1.2 352 13.6 100550 41
2011-06-07 07:45:48 51°18.144 2°52.62 0.2 351 13.6 100550 41
2011-06-07 07:45:53 51°18.16 2°52.631 0.1 354 13.6 100550 42
2011-06-07 07:45:58 51°18.176 2°52.643 1.8 354 13.6 100550 42
2011-06-07 07:46:02 51°18.189 2°52.653 2.4 352 13.6 100550 42
2011-06-07 07:46:07 51°18.204 2°52.667 2.1 358 13.6 100550 42
2011-06-07 07:46:13 51°18.221 2°52.685 2.5 356 13.6 100550 42
2011-06-07 07:46:18 51°18.235 2°52.702 3.3 351 13.6 100550 42
2011-06-07 07:46:22 51°18.247 2°52.715 4.7 352 13.6 100550 42
2011-06-07 07:46:26 51°18.257 2°52.729 4.7 350 13.6 100550 42
2011-06-07 07:46:33 51°18.276 2°52.754 4.1 354 13.6 100550 43
2011-06-07 07:46:38 51°18.289 2°52.772 3.8 351 13.6 100550 43
2011-06-07 07:46:42 51°18.3 2°52.786 3.4 352 13.6 100540 43
2011-06-07 07:46:47 51°18.313 2°52.805 3.6 352 13.6 100540 43
2011-06-07 07:46:52 51°18.326 2°52.823 3 352 13.7 100550 42
2011-06-07 07:46:58 51°18.342 2°52.845 2.9 352 13.7 100550 42
2011-06-07 07:47:02 51°18.352 2°52.86 2.8 351 13.6 100550 42
2011-06-07 07:47:08 51°18.368 2°52.881 3.9 351 13.6 100550 42
2011-06-07 07:47:12 51°18.379 2°52.896 3.4 352 13.6 100540 42
2011-06-07 07:47:18 51°18.395 2°52.917 3.2 356 13.6 100540 42
2011-06-07 07:47:22 51°18.406 2°52.931 3.7 358 13.6 100540 43
2011-06-07 07:47:28 51°18.422 2°52.952 3.7 356 13.6 100540 43
2011-06-07 07:47:33 51°18.435 2°52.97 3.6 356 13.5 100550 42
2011-06-07 07:47:38 51°18.449 2°52.988 3.5 350 13.5 100550 42
2011-06-07 07:47:42 51°18.459 2°53.002 2.3 356 13.5 100550 42
2011-06-07 07:47:47 51°18.473 2°53.02 2.6 350 13.5 100550 42
2011-06-07 07:47:53 51°18.489 2°53.041 2.7 349 13.5 100550 42
2011-06-07 07:47:58 51°18.502 2°53.059 2.2 356 13.5 100550 42
2011-06-07 07:48:02 51°18.512 2°53.073 2.4 355 13.5 100540 43
2011-06-07 07:48:07 51°18.526 2°53.09 2.1 356 13.5 100540 43
2011-06-07 07:48:13 51°18.541 2°53.111 2.7 351 13.5 100550 43
2011-06-07 07:48:18 51°18.553 2°53.13 3.4 354 13.5 100550 43
2011-06-07 07:48:22 51°18.563 2°53.147 3.2 351 13.5 100550 42
2011-06-07 07:48:27 51°18.574 2°53.167 4.1 356 13.5 100550 42
2011-06-07 07:48:33 51°18.586 2°53.193 4.7 355 13.5 100550 43
2011-06-07 07:48:38 51°18.597 2°53.214 4.4 354 13.5 100550 43
2011-06-07 07:48:42 51°18.604 2°53.233 5.7 353 13.5 100540 42
2011-06-07 07:48:47 51°18.613 2°53.255 5.2 355 13.5 100540 42
2011-06-07 07:48:52 51°18.622 2°53.279 4.9 352 13.5 100540 42
2011-06-07 07:48:58 51°18.632 2°53.307 5.2 353 13.5 100540 42
2011-06-07 07:49:02 51°18.638 2°53.326 4.6 355 13.5 100540 43
2011-06-07 07:49:07 51°18.647 2°53.35 5.4 354 13.5 100540 43
2011-06-07 07:49:12 51°18.654 2°53.374 5.1 356 13.5 100540 42
2011-06-07 07:49:18 51°18.664 2°53.403 4.7 354 13.5 100540 42
2011-06-07 07:49:22 51°18.67 2°53.422 4.9 353 13.5 100540 43
2011-06-07 07:49:27 51°18.678 2°53.446 5.6 352 13.5 100540 43
2011-06-07 07:49:33 51°18.688 2°53.475 5.2 353 13.5 100540 42
2011-06-07 07:49:38 51°18.696 2°53.499 5.5 355 13.5 100540 42
2011-06-07 07:49:42 51°18.702 2°53.518 6.2 355 13.4 100540 42
2011-06-07 07:49:47 51°18.711 2°53.541 6.3 354 13.4 100540 42
2011-06-07 07:49:52 51°18.72 2°53.565 5.7 355 13.5 100540 43
2011-06-07 07:49:58 51°18.73 2°53.592 6 356 13.5 100540 43
2011-06-07 07:50:02 51°18.738 2°53.611 5.7 356 13.5 100540 43
2011-06-07 07:50:07 51°18.747 2°53.634 5.6 356 13.5 100540 43
2011-06-07 07:50:13 51°18.758 2°53.661 5.7 355 13.5 100540 43
2011-06-07 07:50:18 51°18.767 2°53.684 5.9 354 13.5 100540 43
2011-06-07 07:50:22 51°18.774 2°53.703 4.9 353 13.5 100540 42
2011-06-07 07:50:28 51°18.785 2°53.73 5.7 352 13.5 100540 42
2011-06-07 07:50:33 51°18.794 2°53.754 5.3 352 13.5 100530 43
2011-06-07 07:50:38 51°18.803 2°53.777 5.1 353 13.5 100530 43
2011-06-07 07:50:42 51°18.81 2°53.796 5.8 352 13.5 100530 43
2011-06-07 07:50:47 51°18.818 2°53.819 5.3 354 13.5 100530 43
2011-06-07 07:50:53 51°18.828 2°53.847 5.3 356 13.5 100540 43
2011-06-07 07:50:58 51°18.837 2°53.871 5.5 353 13.5 100540 43
2011-06-07 07:51:02 51°18.843 2°53.89 6.1 353 13.5 100540 41
2011-06-07 07:51:07 51°18.852 2°53.914 5.7 352 13.5 100540 41
2011-06-07 07:51:13 51°18.861 2°53.943 5 352 13.5 100540 43
2011-06-07 07:51:18 51°18.869 2°53.967 5.9 352 13.5 100540 43
2011-06-07 07:51:22 51°18.875 2°53.987 6.6 353 13.5 100540 43
2011-06-07 07:51:27 51°18.882 2°54.011 5.8 352 13.5 100540 43
2011-06-07 07:51:33 51°18.89 2°54.041 6.4 352 13.5 100540 43
2011-06-07 07:51:38 51°18.897 2°54.066 5.6 351 13.5 100540 43
2011-06-07 07:51:42 51°18.903 2°54.085 6.4 351 13.5 100540 43
2011-06-07 07:51:47 51°18.909 2°54.11 5.1 352 13.5 100540 43
2011-06-07 07:51:52 51°18.916 2°54.135 6.6 351 13.5 100540 43
2011-06-07 07:51:57 51°18.922 2°54.159 6.2 354 13.5 100540 43
2011-06-07 07:52:02 51°18.929 2°54.184 6.5 351 13.5 100540 43
2011-06-07 07:52:07 51°18.936 2°54.209 5.1 354 13.5 100540 43
2011-06-07 07:52:13 51°18.944 2°54.238 5.6 355 13.5 100530 43
2011-06-07 07:52:18 51°18.951 2°54.262 5.1 353 13.5 100530 43
2011-06-07 07:52:22 51°18.958 2°54.281 6.7 350 13.5 100540 43
2011-06-07 07:52:27 51°18.965 2°54.305 5.9 354 13.5 100540 43
2011-06-07 07:52:33 51°18.975 2°54.334 5.5 352 13.5 100530 43
2011-06-07 07:52:38 51°18.983 2°54.357 5.4 352 13.5 100530 43
2011-06-07 07:52:42 51°18.99 2°54.376 4.9 353 13.4 100540 43
2011-06-07 07:52:47 51°18.999 2°54.399 5.4 354 13.4 100540 43
2011-06-07 07:52:52 51°19.008 2°54.423 5.2 352 13.5 100540 43
2011-06-07 07:52:58 51°19.017 2°54.451 5.9 353 13.5 100540 43
2011-06-07 07:53:02 51°19.024 2°54.47 5.6 351 13.5 100530 42
2011-06-07 07:53:07 51°19.032 2°54.494 5.6 349 13.5 100530 42
2011-06-07 07:53:13 51°19.042 2°54.523 5.2 350 13.5 100540 43
2011-06-07 07:53:18 51°19.05 2°54.548 5.7 352 13.5 100540 43
2011-06-07 07:53:22 51°19.056 2°54.567 6.2 353 13.5 100530 43
2011-06-07 07:53:27 51°19.063 2°54.592 5.4 353 13.5 100530 43
2011-06-07 07:53:32 51°19.071 2°54.617 6 354 13.5 100540 43
2011-06-07 07:53:38 51°19.08 2°54.646 5.6 352 13.5 100540 43
2011-06-07 07:53:42 51°19.086 2°54.666 4.9 350 13.4 100540 41
2011-06-07 07:53:47 51°19.093 2°54.691 5.6 353 13.4 100540 41
2011-06-07 07:53:52 51°19.1 2°54.716 5.2 354 13.4 100550 43
2011-06-07 07:53:58 51°19.109 2°54.746 7.5 353 13.4 100550 43
2011-06-07 07:54:02 51°19.114 2°54.766 6.2 353 13.5 100540 43
2011-06-07 07:54:07 51°19.122 2°54.79 6.8 353 13.5 100540 43
2011-06-07 07:54:13 51°19.13 2°54.82 7.4 353 13.4 100530 43
2011-06-07 07:54:18 51°19.137 2°54.845 6.4 352 13.4 100530 43
2011-06-07 07:54:22 51°19.143 2°54.865 6.5 353 13.5 100530 43
2011-06-07 07:54:27 51°19.15 2°54.89 6 352 13.5 100530 43
2011-06-07 07:54:33 51°19.159 2°54.919 6.1 350 13.5 100530 42
2011-06-07 07:54:38 51°19.166 2°54.943 6.4 352 13.5 100530 42
2011-06-07 07:54:42 51°19.173 2°54.963 5.7 351 13.5 100540 43
2011-06-07 07:54:47 51°19.181 2°54.987 6.2 353 13.5 100540 43
2011-06-07 07:54:53 51°19.191 2°55.015 6.3 353 13.5 100530 43
2011-06-07 07:54:58 51°19.199 2°55.039 6.4 354 13.5 100530 43
2011-06-07 07:55:02 51°19.206 2°55.057 6.4 354 13.4 100530 42
2011-06-07 07:55:07 51°19.215 2°55.08 6.3 354 13.4 100530 42
2011-06-07 07:55:12 51°19.224 2°55.104 6 355 13.4 100530 43
2011-06-07 07:55:18 51°19.234 2°55.132 6.4 355 13.4 100530 43
2011-06-07 07:55:22 51°19.241 2°55.151 5.8 353 13.4 100530 43
2011-06-07 07:55:27 51°19.249 2°55.175 4.9 355 13.4 100530 43
2011-06-07 07:55:33 51°19.259 2°55.203 4.9 356 13.4 100530 42
2011-06-07 07:55:38 51°19.267 2°55.227 5 354 13.4 100530 42
2011-06-07 07:55:42 51°19.273 2°55.247 5.5 353 13.4 100540 42
2011-06-07 07:55:47 51°19.281 2°55.271 6.5 354 13.4 100540 42
2011-06-07 07:55:53 51°19.29 2°55.3 6.1 352 13.4 100530 43
2011-06-07 07:55:58 51°19.297 2°55.325 6.3 357 13.4 100530 43
2011-06-07 07:56:02 51°19.303 2°55.345 5.8 356 13.5 100540 43
2011-06-07 07:56:07 51°19.31 2°55.37 5.8 349 13.5 100540 43
2011-06-07 07:56:12 51°19.316 2°55.395 6.7 350 13.5 100540 43
2011-06-07 07:56:18 51°19.324 2°55.425 7.1 350 13.5 100540 43
2011-06-07 07:56:22 51°19.329 2°55.445 7.7 350 13.5 100530 40
2011-06-07 07:56:27 51°19.335 2°55.47 7.7 351 13.5 100530 40
2011-06-07 07:56:33 51°19.343 2°55.5 6.9 351 13.5 100540 43
2011-06-07 07:56:38 51°19.348 2°55.526 5.8 352 13.5 100540 43
2011-06-07 07:56:42 51°19.353 2°55.546 6.5 354 13.5 100540 43
2011-06-07 07:56:47 51°19.359 2°55.571 7 356 13.5 100540 43
2011-06-07 07:56:53 51°19.367 2°55.602 7 357 13.5 100540 43
2011-06-07 07:56:58 51°19.373 2°55.627 6 356 13.5 100540 43
2011-06-07 07:57:02 51°19.378 2°55.647 6.1 357 13.5 100530 42
2011-06-07 07:57:07 51°19.385 2°55.672 5.8 352 13.5 100530 42
2011-06-07 07:57:13 51°19.392 2°55.702 5.2 354 13.5 100540 42
2011-06-07 07:57:18 51°19.4 2°55.727 6.2 356 13.5 100540 42
2011-06-07 07:57:22 51°19.405 2°55.746 5.4 354 13.5 100540 42
2011-06-07 07:57:28 51°19.414 2°55.775 5.5 356 13.5 100540 42
2011-06-07 07:57:32 51°19.42 2°55.795 5.6 355 13.5 100540 42
2011-06-07 07:57:38 51°19.429 2°55.824 6.1 353 13.5 100540 42
2011-06-07 07:57:42 51°19.434 2°55.844 6.3 351 13.5 100530 43
2011-06-07 07:57:47 51°19.442 2°55.868 7 351 13.5 100530 43
2011-06-07 07:57:53 51°19.45 2°55.897 7.3 353 13.5 100540 42
2011-06-07 07:57:58 51°19.457 2°55.922 5.9 351 13.5 100540 42
2011-06-07 07:58:02 51°19.463 2°55.942 7.1 353 13.5 100540 43
2011-06-07 07:58:08 51°19.471 2°55.971 7.2 354 13.5 100540 43
2011-06-07 07:58:13 51°19.477 2°55.996 7.1 353 13.5 100540 43
2011-06-07 07:58:18 51°19.484 2°56.021 6.8 352 13.5 100540 43
2011-06-07 07:58:22 51°19.488 2°56.041 7 354 13.6 100550 43
2011-06-07 07:58:27 51°19.494 2°56.067 8.3 352 13.6 100550 43
2011-06-07 07:58:33 51°19.501 2°56.097 6.8 353 13.6 100540 42
2011-06-07 07:58:38 51°19.506 2°56.123 6.7 351 13.6 100540 42
2011-06-07 07:58:42 51°19.511 2°56.143 6.8 349 13.6 100540 42
2011-06-07 07:58:47 51°19.515 2°56.169 7.4 349 13.6 100540 42
2011-06-07 07:58:53 51°19.522 2°56.2 6.8 351 13.6 100530 42
2011-06-07 07:58:58 51°19.527 2°56.225 7.6 352 13.6 100530 42
2011-06-07 07:59:02 51°19.532 2°56.246 6.8 353 13.6 100540 41
2011-06-07 07:59:07 51°19.538 2°56.271 6.8 352 13.6 100540 41
2011-06-07 07:59:12 51°19.543 2°56.297 7.5 350 13.6 100530 43
2011-06-07 07:59:18 51°19.55 2°56.327 6.1 351 13.6 100530 43
2011-06-07 07:59:22 51°19.554 2°56.348 6.6 351 13.6 100540 42
2011-06-07 07:59:27 51°19.561 2°56.373 6.9 352 13.6 100540 42
2011-06-07 07:59:33 51°19.568 2°56.403 6.7 355 13.6 100540 42
2011-06-07 07:59:38 51°19.574 2°56.429 5.6 352 13.6 100540 42
2011-06-07 07:59:42 51°19.579 2°56.449 6.9 351 13.5 100540 42
2011-06-07 07:59:47 51°19.586 2°56.474 6.3 354 13.5 100540 42
2011-06-07 07:59:53 51°19.593 2°56.504 6.6 352 13.5 100540 43
2011-06-07 07:59:58 51°19.6 2°56.529 5.8 355 13.5 100540 43
2011-06-07 08:00:02 51°19.605 2°56.549 5.7 352 13.5 100540 42
2011-06-07 08:00:07 51°19.612 2°56.574 6.6 354 13.5 100540 42
2011-06-07 08:00:12 51°19.619 2°56.598 5.6 353 13.5 100540 42
2011-06-07 08:00:18 51°19.628 2°56.628 5.2 353 13.5 100540 42
2011-06-07 08:00:22 51°19.633 2°56.648 5.6 354 13.5 100540 43
2011-06-07 08:00:28 51°19.641 2°56.678 6 353 13.5 100540 43
2011-06-07 08:00:32 51°19.647 2°56.698 7.2 354 13.5 100540 42
2011-06-07 08:00:38 51°19.654 2°56.728 5.3 353 13.5 100540 42
2011-06-07 08:00:42 51°19.659 2°56.748 6.3 352 13.5 100540 42
2011-06-07 08:00:47 51°19.665 2°56.774 6.8 351 13.5 100540 42
2011-06-07 08:00:53 51°19.671 2°56.804 6.1 351 13.5 100550 42
2011-06-07 08:00:58 51°19.676 2°56.83 5.6 353 13.5 100550 42
2011-06-07 08:01:02 51°19.681 2°56.851 6.2 352 13.5 100530 42
2011-06-07 08:01:08 51°19.687 2°56.882 5.7 353 13.5 100530 42
2011-06-07 08:01:13 51°19.692 2°56.907 5.4 353 13.5 100540 42
2011-06-07 08:01:18 51°19.698 2°56.933 6.7 351 13.5 100540 42
2011-06-07 08:01:22 51°19.701 2°56.954 7.4 351 13.5 100530 42
2011-06-07 08:01:27 51°19.706 2°56.98 5.7 352 13.5 100530 42
2011-06-07 08:01:33 51°19.712 2°57.012 5.6 351 13.5 100540 43
2011-06-07 08:01:38 51°19.717 2°57.038 6.3 349 13.5 100540 43
2011-06-07 08:01:42 51°19.721 2°57.058 6.2 351 13.5 100540 41
2011-06-07 08:01:47 51°19.726 2°57.084 7.1 351 13.5 100540 41
2011-06-07 08:01:53 51°19.732 2°57.115 7.9 351 13.6 100540 43
2011-06-07 08:01:58 51°19.738 2°57.141 3.3 353 13.6 100540 43
2011-06-07 08:02:02 51°19.742 2°57.162 6.7 350 13.5 100530 43
2011-06-07 08:02:07 51°19.748 2°57.187 6.4 351 13.5 100530 43
2011-06-07 08:02:13 51°19.756 2°57.217 6.5 351 13.5 100540 42
2011-06-07 08:02:18 51°19.762 2°57.242 6.4 354 13.5 100540 42
2011-06-07 08:02:22 51°19.767 2°57.262 7.4 352 13.5 100540 43
2011-06-07 08:02:27 51°19.775 2°57.285 6 351 13.5 100540 43
2011-06-07 08:02:33 51°19.783 2°57.315 6.4 350 13.5 100540 43
2011-06-07 08:02:38 51°19.79 2°57.341 6.7 353 13.5 100540 43
2011-06-07 08:02:42 51°19.795 2°57.361 5.8 352 13.5 100530 42
2011-06-07 08:02:47 51°19.802 2°57.386 5.3 352 13.5 100530 42
2011-06-07 08:02:53 51°19.811 2°57.415 5.5 351 13.5 100550 43
2011-06-07 08:02:58 51°19.818 2°57.44 6.2 352 13.5 100550 43
2011-06-07 08:03:02 51°19.824 2°57.459 5.4 352 13.5 100540 43
2011-06-07 08:03:07 51°19.83 2°57.484 5.5 351 13.5 100540 43
2011-06-07 08:03:13 51°19.838 2°57.514 6.4 351 13.5 100530 42
2011-06-07 08:03:18 51°19.845 2°57.539 6.7 351 13.5 100530 42
2011-06-07 08:03:22 51°19.849 2°57.56 6.9 352 13.5 100540 43
2011-06-07 08:03:27 51°19.855 2°57.585 5.5 356 13.5 100540 43
2011-06-07 08:03:32 51°19.86 2°57.611 6.5 352 13.5 100540 43
2011-06-07 08:03:38 51°19.866 2°57.642 6.2 351 13.5 100540 43
2011-06-07 08:03:42 51°19.871 2°57.662 4.9 350 13.5 100540 43
2011-06-07 08:03:47 51°19.875 2°57.688 5.2 351 13.5 100540 43
2011-06-07 08:03:53 51°19.881 2°57.719 5.5 352 13.5 100550 43
2011-06-07 08:03:58 51°19.887 2°57.744 6.8 354 13.5 100550 43
2011-06-07 08:04:02 51°19.891 2°57.765 6.5 355 13.5 100540 43
2011-06-07 08:04:08 51°19.898 2°57.795 5.9 353 13.5 100540 43
2011-06-07 08:04:13 51°19.903 2°57.82 4.8 355 13.5 100530 43
2011-06-07 08:04:18 51°19.91 2°57.845 4.7 353 13.5 100530 43
2011-06-07 08:04:22 51°19.915 2°57.865 5.8 352 13.5 100540 42
2011-06-07 08:04:27 51°19.921 2°57.89 4.5 353 13.5 100540 42
2011-06-07 08:04:33 51°19.929 2°57.92 4.7 355 13.5 100540 43
2011-06-07 08:04:38 51°19.936 2°57.944 3.9 354 13.5 100540 43
2011-06-07 08:04:42 51°19.941 2°57.964 4.4 352 13.5 100530 43
2011-06-07 08:04:47 51°19.948 2°57.989 2.9 353 13.5 100530 43
2011-06-07 08:04:53 51°19.956 2°58.018 4.2 350 13.5 100530 43
2011-06-07 08:04:58 51°19.962 2°58.043 4.9 354 13.5 100530 43
2011-06-07 08:05:02 51°19.968 2°58.063 4.6 354 13.5 100540 42
2011-06-07 08:05:07 51°19.974 2°58.088 4.6 353 13.5 100540 42
2011-06-07 08:05:13 51°19.981 2°58.118 4.9 353 13.5 100540 42
2011-06-07 08:05:18 51°19.987 2°58.143 5.5 351 13.5 100540 42
2011-06-07 08:05:22 51°19.992 2°58.164 4.4 350 13.5 100540 43
2011-06-07 08:05:27 51°19.998 2°58.189 1.4 352 13.5 100540 43
2011-06-07 08:05:32 51°20.002 2°58.215 1.6 353 13.5 100530 43
2011-06-07 08:05:38 51°20.009 2°58.245 0.1 352 13.5 100530 43
2011-06-07 08:05:42 51°20.012 2°58.266 0.1 351 13.5 100550 42
2011-06-07 08:05:47 51°20.017 2°58.292 1.9 353 13.5 100550 42
2011-06-07 08:05:53 51°20.023 2°58.323 2 353 13.5 100540 43
2011-06-07 08:05:58 51°20.028 2°58.348 2.4 352 13.5 100540 43
2011-06-07 08:06:02 51°20.031 2°58.369 2.3 351 13.5 100550 43
2011-06-07 08:06:07 51°20.037 2°58.394 2.1 353 13.5 100550 43
2011-06-07 08:06:13 51°20.043 2°58.425 2.1 351 13.5 100540 43
2011-06-07 08:06:18 51°20.048 2°58.45 2.2 352 13.5 100540 43
2011-06-07 08:06:22 51°20.053 2°58.47 1.9 353 13.5 100540 43
2011-06-07 08:06:27 51°20.059 2°58.496 0.7 350 13.5 100540 43
2011-06-07 08:06:32 51°20.065 2°58.521 2.4 355 13.4 100540 42
2011-06-07 08:06:38 51°20.073 2°58.551 1.5 354 13.4 100540 42
2011-06-07 08:06:42 51°20.079 2°58.571 1 355 13.5 100530 43
2011-06-07 08:06:47 51°20.085 2°58.596 1.1 354 13.5 100530 43
2011-06-07 08:06:53 51°20.094 2°58.626 0.9 357 13.5 100530 42
2011-06-07 08:06:58 51°20.101 2°58.65 0.1 353 13.5 100530 42
2011-06-07 08:07:02 51°20.106 2°58.671 0.1 354 13.5 100540 41
2011-06-07 08:07:08 51°20.114 2°58.701 0.1 354 13.5 100540 41
2011-06-07 08:07:13 51°20.12 2°58.726 0.1 353 13.5 100550 43
2011-06-07 08:07:18 51°20.126 2°58.752 2.9 353 13.5 100550 43
2011-06-07 08:07:22 51°20.131 2°58.772 0.5 355 13.5 100540 43
2011-06-07 08:07:27 51°20.137 2°58.798 1.5 1 13.5 100540 43
2011-06-07 08:07:33 51°20.143 2°58.829 1.5 359 13.5 100540 42
2011-06-07 08:07:38 51°20.149 2°58.855 1.9 355 13.5 100540 42
2011-06-07 08:07:42 51°20.153 2°58.876 1.7 352 13.5 100550 43
2011-06-07 08:07:47 51°20.158 2°58.902 2.5 350 13.5 100550 43
2011-06-07 08:07:53 51°20.164 2°58.933 2.8 350 13.6 100540 42
2011-06-07 08:07:58 51°20.169 2°58.959 2.1 352 13.6 100540 42
2011-06-07 08:08:02 51°20.173 2°58.979 2.1 352 13.6 100530 43
2011-06-07 08:08:07 51°20.179 2°59.005 2.1 352 13.6 100530 43
2011-06-07 08:08:13 51°20.186 2°59.035 2.5 352 13.6 100540 42
2011-06-07 08:08:18 51°20.192 2°59.06 1.9 350 13.6 100540 42
2011-06-07 08:08:22 51°20.198 2°59.08 4.9 351 13.6 100540 43
2011-06-07 08:08:27 51°20.204 2°59.105 3.8 351 13.6 100540 43
2011-06-07 08:08:32 51°20.212 2°59.129 5.1 352 13.5 100550 43
2011-06-07 08:08:38 51°20.221 2°59.158 4.5 351 13.5 100550 43
2011-06-07 08:08:42 51°20.227 2°59.178 5.2 349 13.5 100550 43
2011-06-07 08:08:47 51°20.235 2°59.202 3.1 350 13.5 100550 43
2011-06-07 08:08:53 51°20.244 2°59.231 4.6 350 13.5 100540 42
2011-06-07 08:08:58 51°20.252 2°59.254 2.7 353 13.5 100540 42
2011-06-07 08:09:02 51°20.258 2°59.274 4.5 351 13.5 100550 43
2011-06-07 08:09:07 51°20.266 2°59.298 3.8 350 13.5 100550 43
2011-06-07 08:09:13 51°20.276 2°59.326 5.5 353 13.6 100550 43
2011-06-07 08:09:18 51°20.284 2°59.35 3.6 352 13.6 100550 43
2011-06-07 08:09:22 51°20.29 2°59.37 0.6 352 13.6 100550 43
2011-06-07 08:09:27 51°20.298 2°59.394 0.1 352 13.6 100550 43
2011-06-07 08:09:32 51°20.305 2°59.418 0.1 351 13.5 100550 42
2011-06-07 08:09:38 51°20.313 2°59.448 -999 353 13.5 100550 42
2011-06-07 08:09:42 51°20.318 2°59.468 -999 353 13.5 100550 41
2011-06-07 08:09:47 51°20.325 2°59.493 -999 350 13.5 100550 41
2011-06-07 08:09:53 51°20.332 2°59.523 -999 352 13.5 100540 42
2011-06-07 08:09:58 51°20.338 2°59.549 -999 354 13.5 100540 42
2011-06-07 08:10:02 51°20.342 2°59.569 -999 351 13.5 100550 42
2011-06-07 08:10:07 51°20.347 2°59.595 -999 353 13.5 100550 42
2011-06-07 08:10:13 51°20.354 2°59.625 -999 355 13.5 100550 42
2011-06-07 08:10:18 51°20.359 2°59.651 -999 354 13.5 100550 42
2011-06-07 08:10:22 51°20.363 2°59.671 -999 354 13.5 100550 42
2011-06-07 08:10:27 51°20.368 2°59.697 -999 353 13.5 100550 42
2011-06-07 08:10:32 51°20.373 2°59.723 -999 351 13.6 100550 43
2011-06-07 08:10:38 51°20.38 2°59.753 -999 353 13.6 100550 43
2011-06-07 08:10:42 51°20.384 2°59.774 -999 353 13.6 100550 42
2011-06-07 08:10:47 51°20.39 2°59.799 -999 357 13.6 100550 42
2011-06-07 08:10:53 51°20.396 2°59.83 -999 357 13.5 100550 42
2011-06-07 08:10:58 51°20.401 2°59.855 -999 355 13.5 100550 42
2011-06-07 08:11:02 51°20.405 2°59.876 -999 355 13.5 100550 42
2011-06-07 08:11:07 51°20.411 2°59.901 -999 355 13.5 100550 42
2011-06-07 08:11:13 51°20.417 2°59.932 -999 351 13.5 100560 42
2011-06-07 08:11:18 51°20.423 2°59.957 -999 353 13.5 100560 42
2011-06-07 08:11:22 51°20.428 2°59.976 -999 352 13.5 100560 42
2011-06-07 08:11:28 51°20.436 3°0.006 -999 350 13.5 100560 42
2011-06-07 08:11:33 51°20.444 3°0.03 -999 353 13.6 100550 43
2011-06-07 08:11:38 51°20.45 3°0.054 -999 352 13.6 100550 43
2011-06-07 08:11:42 51°20.457 3°0.073 -999 351 13.6 100560 43
2011-06-07 08:11:47 51°20.463 3°0.097 -999 353 13.6 100560 43
2011-06-07 08:11:52 51°20.471 3°0.121 -999 353 13.6 100560 42
2011-06-07 08:11:58 51°20.479 3°0.15 -999 358 13.6 100560 42
2011-06-07 08:12:02 51°20.486 3°0.17 -999 355 13.6 100560 42
2011-06-07 08:12:07 51°20.493 3°0.194 -999 357 13.6 100560 42
2011-06-07 08:12:12 51°20.5 3°0.218 -999 2 13.6 100570 42
2011-06-07 08:12:18 51°20.509 3°0.246 -999 356 13.6 100570 42
2011-06-07 08:12:22 51°20.515 3°0.266 -999 357 13.6 100560 41
2011-06-07 08:12:27 51°20.522 3°0.29 -999 355 13.6 100560 41
2011-06-07 08:12:32 51°20.529 3°0.315 -999 357 13.6 100570 42
2011-06-07 08:12:38 51°20.537 3°0.344 -999 357 13.6 100570 42
2011-06-07 08:12:42 51°20.541 3°0.364 -999 357 13.6 100570 42
2011-06-07 08:12:48 51°20.548 3°0.395 -999 356 13.6 100570 42
2011-06-07 08:12:53 51°20.553 3°0.42 -999 352 13.6 100560 41
2011-06-07 08:12:58 51°20.559 3°0.445 -999 353 13.6 100560 41
2011-06-07 08:13:02 51°20.563 3°0.465 -999 352 13.6 100560 43
2011-06-07 08:13:08 51°20.57 3°0.495 -999 355 13.6 100560 43
2011-06-07 08:13:12 51°20.574 3°0.516 -999 352 13.6 100570 42
2011-06-07 08:13:18 51°20.58 3°0.546 -999 353 13.6 100570 42
2011-06-07 08:13:22 51°20.585 3°0.566 -999 354 13.6 100560 42
2011-06-07 08:13:26 51°20.589 3°0.587 -999 352 13.6 100560 42
2011-06-07 08:13:33 51°20.596 3°0.622 -999 356 13.6 100560 42
2011-06-07 08:13:38 51°20.602 3°0.647 -999 355 13.6 100560 42
2011-06-07 08:13:42 51°20.607 3°0.667 -999 355 13.6 100570 42
2011-06-07 08:13:46 51°20.612 3°0.687 -999 352 13.6 100570 42
2011-06-07 08:13:52 51°20.62 3°0.716 -999 355 13.6 100570 42
2011-06-07 08:13:58 51°20.628 3°0.746 -999 354 13.6 100570 42
2011-06-07 08:14:02 51°20.633 3°0.765 -999 354 13.6 100570 42
2011-06-07 08:14:07 51°20.64 3°0.789 -999 353 13.6 100570 42
2011-06-07 08:14:12 51°20.647 3°0.814 -999 353 13.6 100570 42
2011-06-07 08:14:18 51°20.655 3°0.843 -999 352 13.6 100570 42
2011-06-07 08:14:22 51°20.661 3°0.862 -999 353 13.6 100560 42
2011-06-07 08:14:27 51°20.668 3°0.887 -999 355 13.6 100560 42
2011-06-07 08:14:33 51°20.676 3°0.916 -999 352 13.6 100570 42
2011-06-07 08:14:38 51°20.683 3°0.94 -999 353 13.6 100570 42
2011-06-07 08:14:42 51°20.688 3°0.96 -999 351 13.6 100560 42
2011-06-07 08:14:48 51°20.695 3°0.99 -999 354 13.6 100560 42
2011-06-07 08:14:53 51°20.701 3°1.015 -999 354 13.6 100570 42
2011-06-07 08:14:58 51°20.706 3°1.04 -999 351 13.6 100570 42
2011-06-07 08:15:02 51°20.71 3°1.06 -999 353 13.6 100560 41
2011-06-07 08:15:07 51°20.715 3°1.086 -999 353 13.6 100560 41
2011-06-07 08:15:12 51°20.72 3°1.111 -999 353 13.6 100570 42
2011-06-07 08:15:18 51°20.726 3°1.141 -999 355 13.6 100570 42
2011-06-07 08:15:22 51°20.73 3°1.161 -999 356 13.7 100560 42
2011-06-07 08:15:26 51°20.734 3°1.181 -999 351 13.7 100560 42
2011-06-07 08:15:33 51°20.741 3°1.217 -999 355 13.6 100570 41
2011-06-07 08:15:38 51°20.746 3°1.241 -999 354 13.6 100570 41
2011-06-07 08:15:42 51°20.751 3°1.261 -999 355 13.7 100560 42
2011-06-07 08:15:47 51°20.757 3°1.286 -999 354 13.7 100560 42
2011-06-07 08:15:52 51°20.763 3°1.31 -999 356 13.7 100560 42
2011-06-07 08:15:58 51°20.77 3°1.339 -999 353 13.7 100560 42
2011-06-07 08:16:02 51°20.776 3°1.358 -999 352 13.7 100560 42
2011-06-07 08:16:07 51°20.782 3°1.382 -999 355 13.7 100560 42
2011-06-07 08:16:12 51°20.789 3°1.406 -999 357 13.7 100560 42
2011-06-07 08:16:18 51°20.798 3°1.434 -999 352 13.7 100560 42
2011-06-07 08:16:22 51°20.802 3°1.454 -999 355 13.8 100560 42
2011-06-07 08:16:27 51°20.81 3°1.477 -999 356 13.8 100560 42
2011-06-07 08:16:32 51°20.816 3°1.501 -999 356 13.7 100560 42
2011-06-07 08:16:38 51°20.824 3°1.53 -999 356 13.7 100560 42
2011-06-07 08:16:42 51°20.83 3°1.549 -999 356 13.7 100560 42
2011-06-07 08:16:47 51°20.836 3°1.573 -999 354 13.7 100560 42
2011-06-07 08:16:53 51°20.844 3°1.602 -999 355 13.7 100560 42
2011-06-07 08:16:58 51°20.85 3°1.626 -999 355 13.7 100560 42
2011-06-07 08:17:02 51°20.855 3°1.646 -999 356 13.7 100560 42
2011-06-07 08:17:07 51°20.86 3°1.671 -999 354 13.7 100560 42
2011-06-07 08:17:13 51°20.866 3°1.701 -999 352 13.7 100560 42
2011-06-07 08:17:18 51°20.871 3°1.725 -999 350 13.7 100560 42
2011-06-07 08:17:22 51°20.875 3°1.745 -999 353 13.7 100560 42
2011-06-07 08:17:28 51°20.881 3°1.775 -999 353 13.7 100560 42
2011-06-07 08:17:32 51°20.885 3°1.795 -999 355 13.7 100560 42
2011-06-07 08:17:38 51°20.89 3°1.825 -999 354 13.7 100560 42
2011-06-07 08:17:42 51°20.895 3°1.845 -999 354 13.7 100560 41
2011-06-07 08:17:48 51°20.9 3°1.875 -999 352 13.7 100560 41
2011-06-07 08:17:52 51°20.904 3°1.894 -999 354 13.7 100550 42
2011-06-07 08:17:58 51°20.91 3°1.924 -999 355 13.7 100550 42
2011-06-07 08:18:02 51°20.914 3°1.944 -999 354 13.7 100560 42
2011-06-07 08:18:06 51°20.919 3°1.963 -999 354 13.7 100560 42
2011-06-07 08:18:13 51°20.927 3°1.997 -999 353 13.7 100570 41
2011-06-07 08:18:18 51°20.933 3°2.021 -999 354 13.7 100570 41
2011-06-07 08:18:22 51°20.938 3°2.04 -999 353 13.7 100570 42
2011-06-07 08:18:27 51°20.944 3°2.064 -999 354 13.7 100570 42
2011-06-07 08:18:32 51°20.951 3°2.088 -999 356 13.7 100560 42
2011-06-07 08:18:38 51°20.959 3°2.116 -999 356 13.7 100560 42
2011-06-07 08:18:42 51°20.964 3°2.135 -999 357 13.7 100560 42
2011-06-07 08:18:47 51°20.971 3°2.159 -999 354 13.7 100560 42
2011-06-07 08:18:52 51°20.977 3°2.183 -999 355 13.8 100560 43
2011-06-07 08:18:57 51°20.984 3°2.207 -999 355 13.8 100560 43
2011-06-07 08:19:02 51°20.99 3°2.23 -999 353 13.8 100570 42
2011-06-07 08:19:08 51°20.998 3°2.259 -999 353 13.8 100570 42
2011-06-07 08:19:13 51°21.004 3°2.283 -999 353 13.8 100560 43
2011-06-07 08:19:18 51°21.009 3°2.307 -999 354 13.8 100560 43
2011-06-07 08:19:22 51°21.014 3°2.327 -999 354 13.8 100560 42
2011-06-07 08:19:28 51°21.019 3°2.356 -999 353 13.8 100560 42
2011-06-07 08:19:33 51°21.024 3°2.381 -999 354 13.8 100560 42
2011-06-07 08:19:38 51°21.029 3°2.405 -999 356 13.8 100560 42
2011-06-07 08:19:42 51°21.033 3°2.425 -999 357 13.8 100560 42
2011-06-07 08:19:48 51°21.039 3°2.454 -999 353 13.8 100560 42
2011-06-07 08:19:52 51°21.042 3°2.474 -999 351 13.8 100560 42
2011-06-07 08:19:58 51°21.048 3°2.504 -999 354 13.8 100560 42
2011-06-07 08:20:02 51°21.051 3°2.524 -999 350 13.7 100560 42
2011-06-07 08:20:07 51°21.056 3°2.548 -999 355 13.7 100560 42
2011-06-07 08:20:13 51°21.063 3°2.577 -999 354 13.8 100560 42
2011-06-07 08:20:18 51°21.068 3°2.602 -999 355 13.8 100560 42
2011-06-07 08:20:22 51°21.072 3°2.621 -999 355 13.7 100560 41
2011-06-07 08:20:27 51°21.078 3°2.646 -999 356 13.7 100560 41
2011-06-07 08:20:33 51°21.084 3°2.675 -999 354 13.8 100560 42
2011-06-07 08:20:38 51°21.09 3°2.699 -999 350 13.8 100560 42
2011-06-07 08:20:42 51°21.094 3°2.719 -999 354 13.8 100560 42
2011-06-07 08:20:48 51°21.1 3°2.748 -999 353 13.8 100560 42
2011-06-07 08:20:52 51°21.104 3°2.768 -999 353 13.7 100560 41
2011-06-07 08:20:58 51°21.111 3°2.797 -999 350 13.7 100560 41
2011-06-07 08:21:02 51°21.116 3°2.816 -999 350 13.8 100560 42
2011-06-07 08:21:08 51°21.122 3°2.846 -999 352 13.8 100560 42
2011-06-07 08:21:12 51°21.127 3°2.865 -999 351 13.7 100560 42
2011-06-07 08:21:18 51°21.133 3°2.894 -999 347 13.7 100560 42
2011-06-07 08:21:22 51°21.138 3°2.913 -999 349 13.7 100560 42
2011-06-07 08:21:28 51°21.144 3°2.943 -999 353 13.7 100560 42
2011-06-07 08:21:32 51°21.148 3°2.962 -999 356 13.7 100560 42
2011-06-07 08:21:38 51°21.154 3°2.991 -999 355 13.7 100560 42
2011-06-07 08:21:42 51°21.159 3°3.01 -999 355 13.7 100570 42
2011-06-07 08:21:48 51°21.165 3°3.04 -999 357 13.7 100570 42
2011-06-07 08:21:52 51°21.169 3°3.059 -999 355 13.7 100570 42
2011-06-07 08:21:58 51°21.175 3°3.089 -999 358 13.7 100570 42
2011-06-07 08:22:02 51°21.18 3°3.108 -999 356 13.7 100560 42
2011-06-07 08:22:08 51°21.186 3°3.138 -999 352 13.7 100560 42
2011-06-07 08:22:13 51°21.192 3°3.162 -999 355 13.7 100570 42
2011-06-07 08:22:18 51°21.198 3°3.186 -999 350 13.7 100570 42
2011-06-07 08:22:22 51°21.202 3°3.205 -999 352 13.7 100570 42
2011-06-07 08:22:27 51°21.21 3°3.228 -999 353 13.7 100570 42
2011-06-07 08:22:32 51°21.216 3°3.252 -999 352 13.7 100560 42
2011-06-07 08:22:38 51°21.225 3°3.28 -999 354 13.7 100560 42
2011-06-07 08:22:42 51°21.23 3°3.299 -999 353 13.7 100560 42
2011-06-07 08:22:48 51°21.238 3°3.327 -999 351 13.7 100560 42
2011-06-07 08:22:53 51°21.245 3°3.35 -999 352 13.7 100560 42